Date String (YYYY-MM-DD hh:mm:ss) UTC,Instrument flags,absolute air pressure of the measurement (hPa),sample flow rate (lpm),inlet stack bypass flow (lpm),air temperature of the measurement (°C),ambient temperature measured by the external sensor (°C),aerosol sample conditioner tube jacket temperature (°C),OPC LED temperature (°C),internal box temperature (°C),relative humidity of the measurement (%),span deviation,mass concentration of particles derived from Lorenz-Mie calculation of OPC scattering (μg/m³),mass concentration of particles derived from Lorenz-Mie calculation of OPC scattering (μg/m³),mass concentration of particles derived from Lorenz-Mie calculation of OPC scattering (μg/m³)
DateTimeUTC,F1_M11,P_M11,Q1_M11,Q2_M11,T1_M11,T2_M11,T3_M11,T4_M11,T5_M11,U1_M11,ZSPAN_M11,X0_M11,X2_M11,X1_M11
2023-08-06 08:00:00,SystemResetWarning,0838.0,5.00,000.00,029.5,028.3,000.0,038.1,031.2,32.1,0000.0,0007.61,0003.27,0002.88
2023-08-06 08:01:00,SystemResetWarning,0838.0,5.00,000.00,029.6,028.3,000.0,038.1,031.2,31.9,0000.0,0007.60,0003.26,0002.87
2023-08-06 08:02:00,SystemResetWarning,0838.0,5.00,000.00,029.6,028.4,000.0,038.1,031.2,31.9,0000.0,0007.51,0003.25,0002.87
2023-08-06 08:03:00,SystemResetWarning,0838.0,5.00,000.00,029.6,028.4,000.0,038.2,031.3,31.8,0000.0,0007.45,0003.26,0002.86
2023-08-06 08:04:00,SystemResetWarning,0838.0,5.00,000.00,029.6,028.5,000.0,038.2,031.3,32.0,0000.0,0007.31,0003.24,0002.87
2023-08-06 08:05:00,SystemResetWarning,0838.0,5.00,000.00,029.7,028.5,000.0,038.2,031.3,31.9,0000.0,0006.86,0003.21,0002.86
2023-08-06 08:06:00,SystemResetWarning,0838.0,5.00,000.00,029.7,028.6,000.0,038.2,031.3,31.6,0000.0,0006.20,0003.23,0002.88
2023-08-06 08:07:00,SystemResetWarning,0838.0,5.00,000.00,029.7,028.6,000.0,038.2,031.3,31.8,0000.0,0006.18,0003.23,0002.88
2023-08-06 08:08:00,SystemResetWarning,0838.1,5.00,000.00,029.7,028.6,000.0,038.3,031.4,31.5,0000.0,0006.07,0003.24,0002.88
2023-08-06 08:09:00,SystemResetWarning,0838.1,4.99,000.00,029.8,028.7,000.0,038.3,031.4,31.4,0000.0,0005.87,0003.22,0002.88
2023-08-06 08:10:00,SystemResetWarning,0838.1,5.00,000.00,029.8,028.7,000.0,038.3,031.4,31.3,0000.0,0004.82,0003.21,0002.88
2023-08-06 08:11:00,SystemResetWarning,0838.0,4.99,000.00,029.8,028.4,000.0,038.3,031.4,31.2,0000.0,0004.34,0003.23,0002.91
2023-08-06 08:12:00,SystemResetWarning,0837.9,5.00,000.00,029.8,026.5,000.0,038.1,031.2,31.1,0000.0,0005.21,0003.23,0002.93
2023-08-06 08:13:00,SystemResetWarning,0838.0,5.00,000.00,029.7,025.4,000.0,038.0,030.9,31.3,0000.0,0005.72,0003.24,0002.94
2023-08-06 08:14:00,SystemResetWarning,0838.0,5.00,000.00,029.6,025.4,000.0,038.0,030.7,31.6,0000.0,0005.86,0003.24,0002.95
2023-08-06 08:15:00,SystemResetWarning,0838.0,5.01,000.00,029.5,025.7,000.0,038.0,030.7,31.7,0000.0,0005.93,0003.24,0002.97
2023-08-06 08:16:00,SystemResetWarning,0838.0,5.01,000.00,029.4,026.1,000.0,038.1,030.8,31.8,0000.0,0006.05,0003.28,0002.98
2023-08-06 08:17:00,SystemResetWarning,0838.0,4.99,000.00,029.4,026.5,000.0,038.1,030.8,31.6,0000.0,0006.08,0003.28,0002.99
2023-08-06 08:18:00,SystemResetWarning,0838.0,5.00,000.00,029.4,026.8,000.0,038.1,030.9,31.4,0000.0,0006.07,0003.28,0003.01
2023-08-06 08:19:00,SystemResetWarning,0838.0,5.01,000.00,029.4,027.1,000.0,038.1,030.9,31.3,0000.0,0006.24,0003.30,0003.02
2023-08-06 08:20:00,SystemResetWarning,0837.9,5.01,000.00,029.4,027.4,000.0,038.1,031.0,31.2,0000.0,0006.31,0003.32,0003.02
2023-08-06 08:21:00,SystemResetWarning,0838.0,5.00,000.00,029.4,027.6,000.0,038.1,031.0,31.3,0000.0,0006.25,0003.33,0003.03
2023-08-06 08:22:00,SystemResetWarning,0838.0,4.99,000.00,029.4,027.7,000.0,038.1,031.0,31.3,0000.0,0006.24,0003.31,0003.02
2023-08-06 08:23:00,SystemResetWarning,0838.1,4.99,000.00,029.4,027.9,000.0,038.1,031.1,31.1,0000.0,0005.79,0003.32,0003.01
2023-08-06 08:24:00,SystemResetWarning,0838.1,5.00,000.00,029.5,028.0,000.0,038.1,031.1,31.0,0000.0,0005.96,0003.32,0002.99
2023-08-06 08:25:00,SystemResetWarning,0838.2,5.00,000.00,029.5,028.1,000.0,038.1,031.1,31.1,0000.0,0006.02,0003.30,0002.99
2023-08-06 08:26:00,SystemResetWarning,0838.2,5.00,000.00,029.5,028.2,000.0,038.1,031.1,31.0,0000.0,0005.96,0003.32,0002.99
2023-08-06 08:27:00,SystemResetWarning,0838.2,5.00,000.00,029.5,028.2,000.0,038.1,031.2,30.9,0000.0,0005.99,0003.31,0002.98
2023-08-06 08:28:00,SystemResetWarning,0838.2,5.01,000.00,029.5,028.3,000.0,038.1,031.2,30.7,0000.0,0006.00,0003.31,0002.98
2023-08-06 08:29:00,SystemResetWarning,0838.2,5.00,000.00,029.6,028.3,000.0,038.1,031.2,30.8,0000.0,0006.03,0003.32,0002.98
2023-08-06 08:30:00,SystemResetWarning,0838.2,5.00,000.00,029.6,028.4,000.0,038.1,031.2,30.7,0000.0,0005.88,0003.31,0002.97
2023-08-06 08:31:00,SystemResetWarning,0838.2,5.00,000.00,029.6,028.4,000.0,038.2,031.3,30.6,0000.0,0005.78,0003.29,0002.98
2023-08-06 08:32:00,SystemResetWarning,0838.2,5.00,000.00,029.6,028.5,000.0,038.2,031.3,30.5,0000.0,0005.70,0003.27,0002.96
2023-08-06 08:33:00,SystemResetWarning,0838.2,5.00,000.00,029.7,028.5,000.0,038.2,031.3,30.4,0000.0,0005.63,0003.28,0002.96
2023-08-06 08:34:00,SystemResetWarning,0838.2,5.00,000.00,029.7,028.5,000.0,038.2,031.3,30.4,0000.0,0005.59,0003.27,0002.96
2023-08-06 08:35:00,SystemResetWarning,0838.2,5.00,000.00,029.7,028.6,000.0,038.2,031.3,30.4,0000.0,0004.86,0003.31,0002.98
2023-08-06 08:36:00,SystemResetWarning,0838.2,5.00,000.00,029.7,028.6,000.0,038.2,031.4,30.4,0000.0,0004.75,0003.34,0002.99
2023-08-06 08:37:00,SystemResetWarning,0838.1,5.00,000.00,029.8,028.6,000.0,038.3,031.4,30.4,0000.0,0004.71,0003.33,0003.00
2023-08-06 08:38:00,SystemResetWarning,0838.2,5.00,000.00,029.8,028.7,000.0,038.3,031.4,30.3,0000.0,0004.71,0003.33,0003.00
2023-08-06 08:39:00,SystemResetWarning,0838.1,5.00,000.00,029.8,028.7,000.0,038.3,031.4,30.2,0000.0,0005.12,0003.32,0003.03
2023-08-06 08:40:00,SystemResetWarning,0838.0,5.00,000.00,029.8,028.7,000.0,038.3,031.4,30.2,0000.0,0005.23,0003.34,0003.08
2023-08-06 08:41:00,SystemResetWarning,0838.0,5.00,000.00,029.8,028.7,000.0,038.3,031.4,30.2,0000.0,0005.62,0003.38,0003.12
2023-08-06 08:42:00,SystemResetWarning,0838.0,5.00,000.00,029.8,027.2,000.0,038.2,031.3,30.3,0000.0,0006.29,0003.39,0003.15
2023-08-06 08:43:00,SystemResetWarning,0838.0,5.00,000.00,029.8,025.7,000.0,038.1,031.1,30.5,0000.0,0006.49,0003.46,0003.19
2023-08-06 08:44:00,SystemResetWarning,0838.0,5.00,000.00,029.7,025.2,000.0,038.1,030.8,30.8,0000.0,0006.57,0003.52,0003.24
2023-08-06 08:45:00,SystemResetWarning,0838.0,5.01,000.00,029.5,025.5,000.0,038.1,030.6,31.0,0000.0,0006.81,0003.60,0003.30
2023-08-06 08:46:00,SystemResetWarning,0838.0,5.00,000.00,029.4,025.9,000.0,038.1,030.7,31.2,0000.0,0007.03,0003.67,0003.35
2023-08-06 08:47:00,SystemResetWarning,0837.9,4.99,000.00,029.4,026.3,000.0,038.1,030.7,31.4,0000.0,0006.92,0003.68,0003.39
2023-08-06 08:48:00,SystemResetWarning,0838.0,5.00,000.00,029.4,026.6,000.0,038.1,030.8,31.4,0000.0,0006.97,0003.72,0003.44
2023-08-06 08:49:00,SystemResetWarning,0838.1,5.01,000.00,029.4,027.0,000.0,038.1,030.9,31.5,0000.0,0007.09,0003.77,0003.50
2023-08-06 08:50:00,SystemResetWarning,0838.1,5.01,000.00,029.4,027.2,000.0,038.1,030.9,31.5,0000.0,0006.95,0003.83,0003.55
2023-08-06 08:51:00,SystemResetWarning,0838.2,5.00,000.00,029.4,027.5,000.0,038.1,030.9,31.5,0000.0,0006.81,0003.87,0003.58
2023-08-06 08:52:00,SystemResetWarning,0838.2,5.00,000.00,029.4,027.6,000.0,038.1,031.0,31.5,0000.0,0006.76,0003.88,0003.61
2023-08-06 08:53:00,SystemResetWarning,0838.2,5.00,000.00,029.4,027.8,000.0,038.1,031.0,31.6,0000.0,0005.84,0003.93,0003.65
2023-08-06 08:54:00,SystemResetWarning,0838.2,5.00,000.00,029.4,027.9,000.0,038.1,031.1,31.6,0000.0,0005.70,0003.92,0003.68
2023-08-06 08:55:00,SystemResetWarning,0838.2,5.01,000.00,029.5,028.0,000.0,038.1,031.1,31.5,0000.0,0005.69,0003.94,0003.70
2023-08-06 08:56:00,SystemResetWarning,0838.2,5.00,000.00,029.5,028.1,000.0,038.1,031.1,31.4,0000.0,0005.55,0003.94,0003.72
2023-08-06 08:57:00,SystemResetWarning,0838.1,5.00,000.00,029.5,028.2,000.0,038.1,031.1,31.2,0000.0,0005.11,0003.91,0003.74
2023-08-06 08:58:00,SystemResetWarning,0838.2,5.00,000.00,029.5,028.3,000.0,038.1,031.2,31.0,0000.0,0004.98,0003.94,0003.76
2023-08-06 08:59:00,SystemResetWarning,0838.2,5.00,000.00,029.6,028.3,000.0,038.1,031.2,30.9,0000.0,0004.96,0003.96,0003.79
